UAE140 LKPR-OMDB

Flight info

Callsign UAE140
Flight time 5h 18m
Altitude 35000
Route VOZ DCT LIKSA DCT PEPIK DCT BUDOP DCT RONBU P975 ARTAT/N0484F370 UP975 ERGUN UL124 EVSAS UM688 RATVO M688 SIDAD P975 SESRU M677 VUTEB
Aircraft B77W/H-SDE1E2E3FGHIJ2J3J4J5M1RWXY/LB1D1

Departure

Time 2026-04-24 14:54
Airport Václav Havel Airport Prague (LKPR)

Arrival

Time 2026-04-24 20:13
Airport Dubai International Airport (OMDB)
Time Latitude Longitude Altitude Speed Heading
2026-04-24 12:57 50.10845 14.26434 1179 ft 0 kts 34°
2026-04-24 14:38 50.10839 14.26428 1179 ft 2 kts 39°
2026-04-24 14:38 50.10828 14.26412 1179 ft 2 kts 37°
2026-04-24 14:38 50.10820 14.26403 1179 ft 2 kts 33°
2026-04-24 14:39 50.10807 14.26394 1179 ft 2 kts
2026-04-24 14:39 50.10792 14.26395 1180 ft 2 kts 342°
2026-04-24 14:39 50.10779 14.26404 1181 ft 2 kts 320°
2026-04-24 14:39 50.10772 14.26415 1181 ft 0 kts 304°
2026-04-24 14:40 50.10770 14.26420 1182 ft 0 kts 304°
2026-04-24 14:42 50.10775 14.26407 1181 ft 3 kts 304°
2026-04-24 14:42 50.10799 14.26352 1178 ft 8 kts 302°
2026-04-24 14:43 50.10833 14.26255 1174 ft 11 kts 300°
2026-04-24 14:43 50.10876 14.26153 1172 ft 5 kts 305°
2026-04-24 14:43 50.10884 14.26131 1171 ft 2 kts 286°
2026-04-24 14:43 50.10881 14.26097 1171 ft 4 kts 245°
2026-04-24 14:44 50.10853 14.26054 1172 ft 6 kts 215°
2026-04-24 14:44 50.10814 14.26012 1173 ft 6 kts 214°
2026-04-24 14:44 50.10777 14.25971 1175 ft 6 kts 215°
2026-04-24 14:44 50.10742 14.25933 1176 ft 6 kts 215°
2026-04-24 14:45 50.10701 14.25888 1178 ft 8 kts 214°
2026-04-24 14:45 50.10651 14.25835 1179 ft 9 kts 214°
2026-04-24 14:45 50.10606 14.25792 1180 ft 5 kts 192°
2026-04-24 14:45 50.10574 14.25817 1181 ft 6 kts 132°
2026-04-24 14:46 50.10548 14.25873 1182 ft 6 kts 124°
2026-04-24 14:46 50.10521 14.25932 1184 ft 6 kts 126°
2026-04-24 14:46 50.10491 14.25994 1186 ft 7 kts 126°
2026-04-24 14:46 50.10457 14.26066 1187 ft 9 kts 127°
2026-04-24 14:47 50.10426 14.26130 1188 ft 12 kts 127°
2026-04-24 14:47 50.10353 14.26280 1193 ft 13 kts 127°
2026-04-24 14:47 50.10296 14.26399 1198 ft 13 kts 127°
2026-04-24 14:47 50.10238 14.26520 1202 ft 14 kts 126°
2026-04-24 14:48 50.10175 14.26648 1205 ft 15 kts 127°
2026-04-24 14:48 50.10105 14.26793 1206 ft 17 kts 127°
2026-04-24 14:48 50.10026 14.26955 1208 ft 19 kts 125°
2026-04-24 14:48 50.09943 14.27133 1208 ft 20 kts 127°
2026-04-24 14:49 50.09853 14.27312 1208 ft 21 kts 131°
2026-04-24 14:49 50.09749 14.27473 1209 ft 20 kts 136°
2026-04-24 14:49 50.09650 14.27623 1210 ft 19 kts 135°
2026-04-24 14:49 50.09562 14.27760 1215 ft 16 kts 135°
2026-04-24 14:50 50.09488 14.27872 1219 ft 13 kts 136°
2026-04-24 14:50 50.09423 14.27972 1221 ft 13 kts 135°
2026-04-24 14:50 50.09352 14.28082 1224 ft 15 kts 135°
2026-04-24 14:50 50.09274 14.28201 1228 ft 15 kts 135°
2026-04-24 14:51 50.09188 14.28280 1233 ft 11 kts 180°
2026-04-24 14:51 50.09166 14.28272 1234 ft 0 kts 206°
2026-04-24 14:52 50.09165 14.28271 1235 ft 0 kts 206°
2026-04-24 14:52 50.09145 14.28254 1235 ft 5 kts 210°
2026-04-24 14:53 50.09098 14.28208 1236 ft 9 kts 212°
2026-04-24 14:53 50.09067 14.28159 1237 ft 5 kts 251°
2026-04-24 14:53 50.09074 14.28109 1236 ft 1 kts 306°
2026-04-24 14:53 50.09090 14.28074 1236 ft 15 kts 306°
2026-04-24 14:54 50.09302 14.27639 1229 ft 84 kts 308°
2026-04-24 14:54 50.09781 14.26648 1218 ft 145 kts 306°
2026-04-24 14:54 50.10486 14.25193 1382 ft 181 kts 307°
2026-04-24 14:54 50.11229 14.23615 1977 ft 185 kts 308°
2026-04-24 14:55 50.11736 14.22553 2493 ft 182 kts 307°
2026-04-24 14:55 50.12758 14.20434 3159 ft 188 kts 307°
2026-04-24 14:55 50.13542 14.18808 3714 ft 190 kts 308°
2026-04-24 14:55 50.14329 14.17181 4267 ft 190 kts 308°
2026-04-24 14:56 50.15151 14.15478 4608 ft 204 kts 308°
2026-04-24 14:56 50.16035 14.13649 4891 ft 221 kts 307°
2026-04-24 14:56 50.16991 14.11668 5241 ft 237 kts 307°
2026-04-24 14:56 50.17802 14.09374 5572 ft 254 kts 285°
2026-04-24 14:57 50.17804 14.06616 6192 ft 262 kts 257°
2026-04-24 14:57 50.16927 14.04097 6832 ft 272 kts 229°
2026-04-24 14:57 50.15348 14.02426 7431 ft 284 kts 203°
2026-04-24 14:57 50.13388 14.01904 8030 ft 293 kts 185°
2026-04-24 14:58 50.11322 14.01841 8675 ft 297 kts 183°
2026-04-24 14:58 50.09262 14.01981 9210 ft 305 kts 168°
2026-04-24 14:58 50.07326 14.03396 9698 ft 313 kts 140°
2026-04-24 14:58 50.05893 14.05937 10276 ft 313 kts 122°
2026-04-24 14:59 50.04698 14.08836 10593 ft 328 kts 120°
2026-04-24 14:59 50.03453 14.11946 10889 ft 345 kts 120°
2026-04-24 14:59 50.02168 14.15163 11206 ft 361 kts 120°
2026-04-24 14:59 50.00815 14.18546 11547 ft 377 kts 120°
2026-04-24 15:00 49.99406 14.22066 11932 ft 392 kts 120°
2026-04-24 15:00 49.97944 14.25715 12354 ft 406 kts 120°
2026-04-24 15:00 49.96426 14.29496 12916 ft 417 kts 120°
2026-04-24 15:00 49.94896 14.33298 13677 ft 422 kts 120°
2026-04-24 15:01 49.93327 14.37190 14512 ft 427 kts 120°
2026-04-24 15:01 49.91745 14.41109 15458 ft 431 kts 120°
2026-04-24 15:01 49.90155 14.45037 16391 ft 434 kts 120°
2026-04-24 15:01 49.88534 14.49040 17239 ft 440 kts 120°
2026-04-24 15:02 49.86911 14.53044 18032 ft 446 kts 120°
2026-04-24 15:02 49.85258 14.57112 18885 ft 450 kts 120°
2026-04-24 15:02 49.83578 14.61239 19660 ft 456 kts 120°
2026-04-24 15:02 49.81887 14.65388 20449 ft 461 kts 121°
2026-04-24 15:03 49.80739 14.68202 20978 ft 464 kts 121°
2026-04-24 15:03 49.78452 14.73796 21946 ft 471 kts 121°
2026-04-24 15:03 49.76691 14.78097 22674 ft 476 kts 121°
2026-04-24 15:03 49.74899 14.82465 23375 ft 481 kts 121°
2026-04-24 15:04 49.73116 14.86803 24045 ft 486 kts 121°
2026-04-24 15:04 49.71298 14.91222 24775 ft 489 kts 121°
2026-04-24 15:04 49.69475 14.95642 25472 ft 493 kts 121°
2026-04-24 15:04 49.67622 15.00130 26074 ft 498 kts 121°
2026-04-24 15:05 49.65756 15.04642 26716 ft 503 kts 121°
2026-04-24 15:05 49.63865 15.09203 27362 ft 506 kts 121°
2026-04-24 15:05 49.61972 15.13765 27975 ft 511 kts 120°
2026-04-24 15:05 49.60045 15.18399 28568 ft 515 kts 120°
2026-04-24 15:06 49.58101 15.23066 29181 ft 519 kts 120°
2026-04-24 15:06 49.56146 15.27751 29871 ft 521 kts 120°
2026-04-24 15:06 49.54205 15.32392 30719 ft 518 kts 120°
2026-04-24 15:06 49.52260 15.37033 31582 ft 514 kts 120°
2026-04-24 15:07 49.50333 15.41627 32300 ft 513 kts 120°
2026-04-24 15:07 49.48375 15.46283 32941 ft 512 kts 120°
2026-04-24 15:07 49.46411 15.50946 33558 ft 512 kts 120°
2026-04-24 15:07 49.44483 15.55517 34112 ft 511 kts 120°
2026-04-24 15:08 49.42564 15.60060 34696 ft 510 kts 119°
2026-04-24 15:08 49.40639 15.64609 35061 ft 513 kts 119°
2026-04-24 15:08 49.38674 15.69243 35057 ft 512 kts 120°
2026-04-24 15:09 49.34808 15.78338 35055 ft 508 kts 120°
2026-04-24 15:09 49.30930 15.87429 35055 ft 509 kts 120°
2026-04-24 15:10 49.27066 15.96459 35056 ft 510 kts 120°
2026-04-24 15:10 49.23180 16.05510 35060 ft 509 kts 120°
2026-04-24 15:11 49.19289 16.14539 35063 ft 509 kts 120°
2026-04-24 15:11 49.15394 16.23547 35057 ft 508 kts 120°
2026-04-24 15:12 49.11499 16.32528 35054 ft 510 kts 120°
2026-04-24 15:12 49.05660 16.45931 35051 ft 507 kts 120°
2026-04-24 15:13 49.01752 16.54866 35048 ft 506 kts 120°
2026-04-24 15:13 48.97807 16.63857 35048 ft 509 kts 120°
2026-04-24 15:14 48.93872 16.72793 35046 ft 509 kts 120°
2026-04-24 15:14 48.89917 16.81743 35048 ft 508 kts 120°
2026-04-24 15:15 48.85974 16.90639 35035 ft 508 kts 120°
2026-04-24 15:15 48.82034 16.99497 35036 ft 508 kts 120°
2026-04-24 15:16 48.78073 17.08374 35029 ft 508 kts 120°
2026-04-24 15:16 48.74159 17.17299 35030 ft 507 kts 119°
2026-04-24 15:17 48.70297 17.26107 35030 ft 505 kts 119°
2026-04-24 15:17 48.66390 17.34983 35025 ft 507 kts 119°
2026-04-24 15:18 48.62498 17.43793 35022 ft 506 kts 119°
2026-04-24 15:18 48.58600 17.52585 35022 ft 507 kts 119°
2026-04-24 15:19 48.54667 17.61428 35023 ft 506 kts 119°
2026-04-24 15:19 48.50736 17.70235 35016 ft 506 kts 120°
2026-04-24 15:20 48.46811 17.79001 35014 ft 507 kts 120°
2026-04-24 15:20 48.42853 17.87812 35015 ft 506 kts 120°
2026-04-24 15:21 48.38906 17.96570 35012 ft 504 kts 120°
2026-04-24 15:21 48.34958 18.05301 35013 ft 505 kts 120°
2026-04-24 15:22 48.31011 18.14003 35012 ft 504 kts 120°
2026-04-24 15:23 48.25069 18.27049 35007 ft 503 kts 120°
2026-04-24 15:23 48.19132 18.40026 35008 ft 505 kts 120°
2026-04-24 15:25 48.09847 18.60190 35005 ft 505 kts 120°
2026-04-24 15:26 47.99224 18.83081 35012 ft 505 kts 120°
2026-04-24 15:27 47.87159 19.08846 35002 ft 504 kts 121°
2026-04-24 15:29 47.75111 19.34337 34994 ft 503 kts 120°
2026-04-24 15:31 47.60969 19.63956 34994 ft 502 kts 121°
2026-04-24 15:33 47.44742 19.97553 34990 ft 501 kts 121°
2026-04-24 15:34 47.34581 20.18385 34993 ft 501 kts 121°
2026-04-24 15:35 47.24376 20.39149 34992 ft 501 kts 121°
2026-04-24 15:36 47.20296 20.47407 34995 ft 501 kts 121°
2026-04-24 15:36 47.14133 20.59833 34997 ft 502 kts 121°
2026-04-24 15:37 47.10048 20.68041 35000 ft 501 kts 122°
2026-04-24 15:37 47.05934 20.76281 35000 ft 502 kts 122°
2026-04-24 15:38 47.01797 20.84542 35000 ft 503 kts 122°
2026-04-24 15:38 46.97658 20.92784 35001 ft 501 kts 122°
2026-04-24 15:39 46.93516 21.01004 35001 ft 501 kts 122°
2026-04-24 15:39 46.89392 21.09168 34998 ft 502 kts 121°
2026-04-24 15:40 46.85261 21.17320 34992 ft 502 kts 121°
2026-04-24 15:40 46.81091 21.25525 34995 ft 502 kts 121°
2026-04-24 15:41 46.76925 21.33697 34995 ft 501 kts 121°
2026-04-24 15:41 46.72754 21.41857 34999 ft 502 kts 121°
2026-04-24 15:42 46.68582 21.49995 35000 ft 502 kts 121°
2026-04-24 15:42 46.64590 21.58194 35004 ft 497 kts 119°
2026-04-24 15:43 46.60604 21.66477 35010 ft 500 kts 120°
2026-04-24 15:43 46.56607 21.74736 35010 ft 498 kts 120°
2026-04-24 15:44 46.52592 21.82999 35010 ft 501 kts 120°
2026-04-24 15:44 46.48584 21.91215 35012 ft 499 kts 120°
2026-04-24 15:45 46.44574 21.99409 35014 ft 499 kts 120°
2026-04-24 15:45 46.40540 22.07627 35016 ft 499 kts 120°
2026-04-24 15:46 46.36520 22.15790 35011 ft 499 kts 120°
2026-04-24 15:46 46.32479 22.23973 35015 ft 499 kts 120°
2026-04-24 15:47 46.28441 22.32125 35016 ft 499 kts 120°
2026-04-24 15:47 46.24427 22.40203 35013 ft 498 kts 120°
2026-04-24 15:48 46.20392 22.48303 35012 ft 498 kts 120°
2026-04-24 15:48 46.16356 22.56381 35009 ft 497 kts 120°
2026-04-24 15:49 46.12324 22.64426 35013 ft 499 kts 120°
2026-04-24 15:49 46.08238 22.72557 35014 ft 497 kts 121°
2026-04-24 15:50 46.04165 22.80639 35019 ft 497 kts 121°
2026-04-24 15:50 46.00135 22.88612 35009 ft 496 kts 121°
2026-04-24 15:51 45.96078 22.96616 35009 ft 495 kts 121°
2026-04-24 15:51 45.91986 23.04667 35008 ft 497 kts 121°
2026-04-24 15:52 45.87896 23.12690 34993 ft 497 kts 121°
2026-04-24 15:52 45.83841 23.20622 34989 ft 497 kts 121°
2026-04-24 15:53 45.79747 23.28606 34985 ft 497 kts 121°
2026-04-24 15:53 45.75690 23.36499 34981 ft 497 kts 121°
2026-04-24 15:54 45.71606 23.44420 34977 ft 497 kts 121°
2026-04-24 15:54 45.67482 23.52397 34980 ft 499 kts 121°
2026-04-24 15:55 45.63370 23.60328 34970 ft 497 kts 121°
2026-04-24 15:55 45.59246 23.68259 34970 ft 497 kts 122°
2026-04-24 15:56 45.55129 23.76158 34965 ft 498 kts 122°
2026-04-24 15:56 45.50991 23.84071 34969 ft 499 kts 122°
2026-04-24 15:57 45.46836 23.91996 34966 ft 498 kts 122°
2026-04-24 15:57 45.42688 23.99885 34971 ft 499 kts 122°
2026-04-24 15:58 45.38550 24.07734 34975 ft 498 kts 122°
2026-04-24 15:58 45.34383 24.15617 34975 ft 499 kts 122°
2026-04-24 15:59 45.30228 24.23455 34971 ft 499 kts 122°
2026-04-24 15:59 45.26031 24.31349 34975 ft 499 kts 121°
2026-04-24 16:00 45.21851 24.39191 34973 ft 499 kts 122°
2026-04-24 16:00 45.17670 24.47012 34974 ft 498 kts 122°
2026-04-24 16:01 45.13491 24.54808 34971 ft 498 kts 122°
2026-04-24 16:01 45.09281 24.62641 34967 ft 499 kts 122°
2026-04-24 16:02 45.05089 24.70421 34971 ft 500 kts 122°
2026-04-24 16:02 45.00869 24.78228 34975 ft 497 kts 122°
2026-04-24 16:03 44.96665 24.85985 34974 ft 497 kts 122°
2026-04-24 16:03 44.92465 24.93716 34974 ft 498 kts 122°
2026-04-24 16:04 44.88250 25.01452 34959 ft 497 kts 122°
2026-04-24 16:04 44.84074 25.09096 34955 ft 499 kts 122°
2026-04-24 16:05 44.77747 25.20638 34954 ft 499 kts 122°
2026-04-24 16:06 44.71379 25.32209 34949 ft 498 kts 122°
2026-04-24 16:07 44.65020 25.43715 34945 ft 498 kts 122°
2026-04-24 16:07 44.58643 25.55210 34945 ft 498 kts 122°
2026-04-24 16:08 44.52220 25.66741 34942 ft 499 kts 123°
2026-04-24 16:09 44.45814 25.78197 34936 ft 500 kts 123°
2026-04-24 16:09 44.41490 25.85902 34928 ft 499 kts 122°
2026-04-24 16:11 44.30770 26.04919 34927 ft 501 kts 122°
2026-04-24 16:11 44.26440 26.12562 34928 ft 501 kts 122°
2026-04-24 16:12 44.19953 26.23979 34937 ft 502 kts 122°
2026-04-24 16:13 44.13477 26.35332 34949 ft 501 kts 122°
2026-04-24 16:14 44.04803 26.50466 34956 ft 500 kts 122°
2026-04-24 16:14 43.98769 26.62179 34958 ft 497 kts 119°
2026-04-24 16:15 43.92728 26.73988 34963 ft 498 kts 119°
2026-04-24 16:16 43.86720 26.85637 34950 ft 499 kts 120°
2026-04-24 16:17 43.76632 27.05061 34957 ft 498 kts 120°
2026-04-24 16:18 43.68508 27.20600 34958 ft 498 kts 119°
2026-04-24 16:19 43.62432 27.32166 34960 ft 499 kts 119°
2026-04-24 16:20 43.56329 27.43739 34962 ft 499 kts 119°
2026-04-24 16:20 43.50228 27.55261 34960 ft 496 kts 119°
2026-04-24 16:21 43.44070 27.66847 34963 ft 498 kts 120°
2026-04-24 16:22 43.39985 27.74507 34965 ft 499 kts 120°
2026-04-24 16:22 43.33842 27.85986 34946 ft 497 kts 120°
2026-04-24 16:23 43.29726 27.93658 34947 ft 501 kts 120°
2026-04-24 16:24 43.23532 28.05158 34944 ft 501 kts 120°
2026-04-24 16:24 43.19409 28.12787 34949 ft 498 kts 120°
2026-04-24 16:25 43.15277 28.20417 34949 ft 501 kts 120°
2026-04-24 16:25 43.11118 28.28075 34960 ft 500 kts 120°
2026-04-24 16:26 43.04922 28.39444 34960 ft 498 kts 120°
2026-04-24 16:27 42.98673 28.50874 34968 ft 502 kts 120°
2026-04-24 16:27 42.94511 28.58457 34975 ft 500 kts 120°
2026-04-24 16:28 42.90362 28.66000 34981 ft 499 kts 121°
2026-04-24 16:28 42.84079 28.77386 34970 ft 500 kts 121°
2026-04-24 16:29 42.79922 28.84895 34973 ft 502 kts 121°
2026-04-24 16:30 42.71523 29.00011 34979 ft 503 kts 121°
2026-04-24 16:30 42.67321 29.07542 34976 ft 500 kts 121°
2026-04-24 16:31 42.63119 29.15057 34979 ft 502 kts 121°
2026-04-24 16:31 42.58898 29.22585 34984 ft 501 kts 121°
2026-04-24 16:32 42.54677 29.30095 34984 ft 503 kts 122°
2026-04-24 16:32 42.50447 29.37601 34989 ft 501 kts 122°
2026-04-24 16:33 42.46213 29.45097 34993 ft 503 kts 122°
2026-04-24 16:33 42.41987 29.52561 34996 ft 503 kts 122°
2026-04-24 16:34 42.37771 29.60084 34988 ft 501 kts 118°
2026-04-24 16:34 42.34735 29.68383 34998 ft 489 kts 104°
2026-04-24 16:35 42.32588 29.77061 35000 ft 488 kts 103°
2026-04-24 16:35 42.30403 29.85831 35003 ft 492 kts 103°
2026-04-24 16:36 42.28211 29.94508 34998 ft 489 kts 104°
2026-04-24 16:36 42.26013 30.03140 35002 ft 489 kts 104°
2026-04-24 16:37 42.23782 30.11850 35011 ft 494 kts 104°
2026-04-24 16:37 42.21548 30.20520 35007 ft 493 kts 104°
2026-04-24 16:38 42.19285 30.29265 35015 ft 493 kts 104°
2026-04-24 16:38 42.17023 30.37973 35013 ft 495 kts 104°
2026-04-24 16:39 42.14742 30.46718 35009 ft 494 kts 104°
2026-04-24 16:39 42.12448 30.55483 35012 ft 495 kts 104°
2026-04-24 16:40 42.10169 30.64157 35019 ft 495 kts 104°
2026-04-24 16:40 42.07861 30.72908 35014 ft 497 kts 105°
2026-04-24 16:41 42.05528 30.81723 35013 ft 497 kts 105°
2026-04-24 16:41 42.03209 30.90455 35007 ft 497 kts 106°
2026-04-24 16:42 42.00873 30.99221 35015 ft 499 kts 106°
2026-04-24 16:42 41.98527 31.07998 35013 ft 498 kts 106°
2026-04-24 16:43 41.96165 31.16823 35019 ft 502 kts 106°
2026-04-24 16:43 41.93798 31.25633 35022 ft 503 kts 106°
2026-04-24 16:44 41.91427 31.34424 35013 ft 503 kts 106°
2026-04-24 16:44 41.89041 31.43238 35004 ft 502 kts 107°
2026-04-24 16:45 41.86633 31.52107 35012 ft 505 kts 107°
2026-04-24 16:45 41.84232 31.60909 35007 ft 504 kts 107°
2026-04-24 16:46 41.81825 31.69699 35010 ft 506 kts 108°
2026-04-24 16:46 41.79374 31.78585 35023 ft 507 kts 108°
2026-04-24 16:47 41.76939 31.87398 35025 ft 507 kts 108°
2026-04-24 16:47 41.74472 31.96299 35024 ft 507 kts 108°
2026-04-24 16:48 41.72014 32.05135 35030 ft 510 kts 108°
2026-04-24 16:48 41.69544 32.13983 35025 ft 508 kts 108°
2026-04-24 16:49 41.67052 32.22892 35028 ft 510 kts 108°
2026-04-24 16:49 41.64574 32.31762 35029 ft 511 kts 108°
2026-04-24 16:50 41.62078 32.40627 35028 ft 511 kts 109°
2026-04-24 16:50 41.59569 32.49491 35027 ft 512 kts 109°
2026-04-24 16:51 41.57045 32.58385 35034 ft 514 kts 109°
2026-04-24 16:51 41.54506 32.67305 35023 ft 514 kts 110°
2026-04-24 16:52 41.51952 32.76249 35020 ft 515 kts 110°
2026-04-24 16:52 41.49394 32.85175 35013 ft 516 kts 110°
2026-04-24 16:53 41.46825 32.94104 35016 ft 516 kts 110°
2026-04-24 16:53 41.43885 33.02788 35006 ft 517 kts 118°
2026-04-24 16:54 41.40400 33.11206 35007 ft 518 kts 119°
2026-04-24 16:54 41.36916 33.19573 35013 ft 517 kts 119°
2026-04-24 16:55 41.33448 33.27968 35023 ft 519 kts 118°
2026-04-24 16:55 41.30052 33.36419 35018 ft 520 kts 118°
2026-04-24 16:56 41.26691 33.44868 35018 ft 518 kts 118°
2026-04-24 16:56 41.23345 33.53355 35028 ft 519 kts 118°
2026-04-24 16:57 41.19987 33.61838 35005 ft 520 kts 118°
2026-04-24 16:57 41.16629 33.70288 35003 ft 519 kts 119°
2026-04-24 16:58 41.13248 33.78767 34999 ft 522 kts 119°
2026-04-24 16:58 41.09844 33.87280 34990 ft 520 kts 119°
2026-04-24 16:59 41.06435 33.95778 35005 ft 522 kts 120°
2026-04-24 17:00 41.01336 34.08445 35160 ft 522 kts 120°
2026-04-24 17:00 40.97915 34.16913 34974 ft 520 kts 120°
2026-04-24 17:00 40.96200 34.21146 35125 ft 525 kts 120°
2026-04-24 17:01 40.92773 34.29592 34897 ft 521 kts 120°
2026-04-24 17:01 40.91052 34.33824 34969 ft 526 kts 120°
2026-04-24 17:02 40.85871 34.46529 34998 ft 522 kts 120°
2026-04-24 17:02 40.82415 34.54974 35003 ft 524 kts 120°
2026-04-24 17:03 40.77225 34.67613 34979 ft 526 kts 121°
2026-04-24 17:04 40.74100 34.76304 35003 ft 529 kts 110°
2026-04-24 17:04 40.70980 34.90316 35137 ft 531 kts 108°
2026-04-24 17:05 40.69958 34.94960 35018 ft 530 kts 108°
2026-04-24 17:05 40.68925 34.99636 35012 ft 529 kts 108°
2026-04-24 17:05 40.66864 35.08912 34859 ft 531 kts 108°
2026-04-24 17:06 40.65825 35.13572 35130 ft 532 kts 108°
2026-04-24 17:06 40.63726 35.22936 35000 ft 534 kts 108°
2026-04-24 17:06 40.62685 35.27570 35005 ft 532 kts 108°
2026-04-24 17:07 40.60576 35.36910 35008 ft 535 kts 109°
2026-04-24 17:08 40.56334 35.55583 35019 ft 536 kts 109°
2026-04-24 17:08 40.54197 35.64928 35025 ft 536 kts 109°
2026-04-24 17:09 40.49883 35.83679 35018 ft 536 kts 110°
2026-04-24 17:10 40.45544 36.02378 35017 ft 538 kts 110°
2026-04-24 17:12 40.36726 36.39919 35011 ft 540 kts 110°
2026-04-24 18:54 30.70348 47.64111 36933 ft 496 kts 148°
2026-04-24 18:55 30.62577 47.72251 36916 ft 498 kts 149°
2026-04-24 18:56 30.57356 47.77691 36911 ft 502 kts 149°
2026-04-24 18:56 30.52218 47.83038 36912 ft 501 kts 149°
2026-04-24 18:57 30.46965 47.88485 36903 ft 502 kts 148°
2026-04-24 18:57 30.41749 47.93887 36897 ft 505 kts 148°
2026-04-24 18:58 30.36544 47.99274 36895 ft 497 kts 148°
2026-04-24 18:58 30.31331 48.04650 36885 ft 504 kts 148°
2026-04-24 18:59 30.26095 48.10050 36887 ft 501 kts 148°
2026-04-24 18:59 30.20902 48.15395 36888 ft 501 kts 148°
2026-04-24 19:00 30.15694 48.20744 36891 ft 507 kts 147°
2026-04-24 19:00 30.10413 48.26167 36899 ft 501 kts 148°
2026-04-24 19:01 30.05214 48.31490 36906 ft 507 kts 148°
2026-04-24 19:01 29.99933 48.36896 36915 ft 504 kts 148°
2026-04-24 19:02 29.95592 48.41330 36912 ft 502 kts 147°
2026-04-24 19:02 29.89435 48.47585 36901 ft 500 kts 150°
2026-04-24 19:03 29.83664 48.51772 36925 ft 487 kts 161°
2026-04-24 19:03 29.77608 48.55303 36922 ft 484 kts 162°
2026-04-24 19:04 29.71645 48.58762 36929 ft 483 kts 162°
2026-04-24 19:04 29.65589 48.62265 36922 ft 485 kts 161°
2026-04-24 19:05 29.59562 48.65746 36909 ft 488 kts 162°
2026-04-24 19:05 29.53488 48.69252 36910 ft 487 kts 162°
2026-04-24 19:06 29.47418 48.72747 36906 ft 489 kts 161°
2026-04-24 19:06 29.41380 48.76224 36910 ft 484 kts 161°
2026-04-24 19:07 29.35273 48.79738 36905 ft 491 kts 161°
2026-04-24 19:07 29.30210 48.82654 36911 ft 486 kts 161°
2026-04-24 19:08 29.23126 48.86725 36906 ft 489 kts 161°
2026-04-24 19:08 29.17034 48.90234 36901 ft 493 kts 158°
2026-04-24 19:09 29.11394 48.94876 36915 ft 504 kts 146°
2026-04-24 19:09 29.06069 49.00078 36909 ft 505 kts 146°
2026-04-24 19:10 29.00742 49.05278 36910 ft 507 kts 145°
2026-04-24 19:10 28.95396 49.10488 36910 ft 504 kts 146°
2026-04-24 19:11 28.90009 49.15722 36911 ft 507 kts 146°
2026-04-24 19:11 28.84680 49.20999 36917 ft 506 kts 144°
2026-04-24 19:12 28.79452 49.26392 36916 ft 506 kts 144°
2026-04-24 19:12 28.74226 49.31764 36911 ft 509 kts 144°
2026-04-24 19:13 28.69856 49.36246 36915 ft 508 kts 144°
2026-04-24 19:13 28.63701 49.42543 36915 ft 509 kts 144°
2026-04-24 19:14 28.59091 49.48678 36909 ft 522 kts 127°
2026-04-24 19:14 28.55251 49.55817 36909 ft 526 kts 126°
2026-04-24 19:15 28.51488 49.62896 36912 ft 526 kts 126°
2026-04-24 19:15 28.47681 49.70036 36896 ft 527 kts 127°
2026-04-24 19:16 28.41549 49.80301 36897 ft 517 kts 140°
2026-04-24 19:16 28.36112 49.85477 36889 ft 504 kts 153°
2026-04-24 19:17 28.30259 49.89961 36887 ft 507 kts 153°
2026-04-24 19:17 28.24416 49.94410 36886 ft 503 kts 153°
2026-04-24 19:18 28.18599 49.98829 36886 ft 505 kts 153°
2026-04-24 19:18 28.12774 50.03248 36886 ft 501 kts 153°
2026-04-24 19:19 28.06922 50.07676 36888 ft 505 kts 153°
2026-04-24 19:19 28.01079 50.12095 36885 ft 503 kts 153°
2026-04-24 19:20 27.95269 50.16480 36887 ft 504 kts 153°
2026-04-24 19:20 27.89384 50.20917 36894 ft 504 kts 153°
2026-04-24 19:21 27.83533 50.25322 36897 ft 506 kts 153°
2026-04-24 19:21 27.77661 50.29738 36896 ft 505 kts 153°
2026-04-24 19:22 27.71834 50.34114 36905 ft 506 kts 153°
2026-04-24 19:22 27.65929 50.38541 36905 ft 506 kts 153°
2026-04-24 19:23 27.60061 50.42965 36907 ft 502 kts 153°
2026-04-24 19:23 27.54221 50.47447 36906 ft 510 kts 152°
2026-04-24 19:24 27.48390 50.51922 36916 ft 506 kts 153°
2026-04-24 19:24 27.42534 50.56403 36913 ft 510 kts 153°
2026-04-24 19:25 27.36681 50.60878 36920 ft 506 kts 153°
2026-04-24 19:25 27.30850 50.65329 36916 ft 507 kts 153°
2026-04-24 19:26 27.24953 50.69823 36898 ft 506 kts 153°
2026-04-24 19:26 27.19114 50.74265 36902 ft 509 kts 153°
2026-04-24 19:27 27.13448 50.79114 36901 ft 518 kts 142°
2026-04-24 19:27 27.08336 50.84856 36899 ft 519 kts 141°
2026-04-24 19:28 27.03225 50.90644 36890 ft 523 kts 141°
2026-04-24 19:28 26.98557 50.97005 36881 ft 532 kts 128°
2026-04-24 19:29 26.92692 51.07580 36889 ft 533 kts 127°
2026-04-24 19:30 26.88810 51.14607 36888 ft 534 kts 125°
2026-04-24 19:30 26.85796 51.22296 36897 ft 539 kts 112°
2026-04-24 19:31 26.83420 51.30247 36892 ft 542 kts 111°
2026-04-24 19:31 26.81031 51.38247 36896 ft 539 kts 111°
2026-04-24 19:32 26.78641 51.46218 36895 ft 542 kts 111°
2026-04-24 19:32 26.76239 51.54204 36899 ft 539 kts 111°
2026-04-24 19:33 26.73844 51.62146 36901 ft 543 kts 111°
2026-04-24 19:33 26.71452 51.70112 36885 ft 538 kts 112°
2026-04-24 19:34 26.69067 51.78072 36884 ft 540 kts 111°
2026-04-24 19:34 26.66668 51.86060 36884 ft 541 kts 111°
2026-04-24 19:35 26.64315 51.93736 36890 ft 538 kts 113°
2026-04-24 19:35 26.61749 52.01582 36890 ft 540 kts 113°
2026-04-24 19:36 26.59173 52.09452 36888 ft 537 kts 113°
2026-04-24 19:36 26.56601 52.17300 36887 ft 542 kts 112°
2026-04-24 19:37 26.54026 52.25157 36889 ft 538 kts 113°
2026-04-24 19:37 26.51448 52.33007 36887 ft 540 kts 112°
2026-04-24 19:38 26.48856 52.40884 36889 ft 537 kts 113°
2026-04-24 19:38 26.46285 52.48684 36888 ft 539 kts 112°
2026-04-24 19:39 26.43705 52.56498 36888 ft 536 kts 112°
2026-04-24 19:39 26.41109 52.64340 36886 ft 539 kts 112°
2026-04-24 19:40 26.38516 52.72165 36870 ft 537 kts 113°
2026-04-24 19:40 26.35936 52.79936 36866 ft 538 kts 113°
2026-04-24 19:41 26.33327 52.87766 36869 ft 537 kts 113°
2026-04-24 19:41 26.30714 52.95590 36870 ft 537 kts 112°
2026-04-24 19:42 26.28097 53.03410 36866 ft 538 kts 112°
2026-04-24 19:42 26.25491 53.11182 36868 ft 537 kts 113°
2026-04-24 19:43 26.22866 53.18990 36870 ft 539 kts 112°
2026-04-24 19:43 26.20256 53.26746 36872 ft 535 kts 112°
2026-04-24 19:44 26.17622 53.34518 36866 ft 536 kts 115°
2026-04-24 19:44 26.14562 53.42080 36704 ft 529 kts 117°
2026-04-24 19:44 26.13030 53.45792 35828 ft 532 kts 117°
2026-04-24 19:45 26.11498 53.49513 34886 ft 535 kts 117°
2026-04-24 19:45 26.09947 53.53288 34014 ft 536 kts 117°
2026-04-24 19:45 26.08399 53.57066 33128 ft 537 kts 117°
2026-04-24 19:45 26.06853 53.60840 32249 ft 537 kts 116°
2026-04-24 19:46 26.05316 53.64592 31310 ft 538 kts 116°
2026-04-24 19:46 26.03745 53.68428 30355 ft 539 kts 117°
2026-04-24 19:46 26.02215 53.72166 29819 ft 531 kts 117°
2026-04-24 19:46 26.00693 53.75883 29322 ft 523 kts 116°
2026-04-24 19:47 25.99244 53.79532 28773 ft 517 kts 115°
2026-04-24 19:47 25.97818 53.83179 28201 ft 512 kts 115°
2026-04-24 19:47 25.96405 53.86788 27610 ft 508 kts 115°
2026-04-24 19:47 25.95003 53.90364 27020 ft 503 kts 115°
2026-04-24 19:48 25.93621 53.93886 26427 ft 499 kts 115°
2026-04-24 19:48 25.92226 53.97434 25826 ft 494 kts 115°
2026-04-24 19:48 25.89331 54.04232 24639 ft 485 kts 118°
2026-04-24 19:49 25.86347 54.10906 23423 ft 478 kts 118°
2026-04-24 19:49 25.83427 54.17451 22223 ft 470 kts 118°
2026-04-24 19:50 25.79865 54.27435 20400 ft 461 kts 110°
2026-04-24 19:50 25.78834 54.30761 19779 ft 458 kts 110°
2026-04-24 19:51 25.76774 54.37394 18540 ft 451 kts 110°
2026-04-24 19:51 25.75759 54.40659 17924 ft 448 kts 110°
2026-04-24 19:52 25.73754 54.47097 16687 ft 435 kts 110°
2026-04-24 19:52 25.72774 54.50237 16089 ft 427 kts 110°
2026-04-24 19:52 25.71816 54.53307 15501 ft 419 kts 110°
2026-04-24 19:52 25.70878 54.56308 14914 ft 412 kts 110°
2026-04-24 19:53 25.69957 54.59251 14266 ft 402 kts 110°
2026-04-24 19:53 25.69047 54.62132 13451 ft 394 kts 110°
2026-04-24 19:53 25.67242 54.67750 11661 ft 382 kts 110°
2026-04-24 19:54 25.66367 54.70472 11109 ft 367 kts 110°
2026-04-24 19:54 25.65529 54.73078 10748 ft 349 kts 110°
2026-04-24 19:54 25.64729 54.75565 10586 ft 337 kts 110°
2026-04-24 19:54 25.63952 54.77976 10449 ft 326 kts 110°
2026-04-24 19:55 25.63458 54.79511 10365 ft 319 kts 110°
2026-04-24 19:55 25.62485 54.82532 10191 ft 305 kts 110°
2026-04-24 19:55 25.61786 54.84701 10057 ft 296 kts 110°
2026-04-24 19:55 25.61099 54.86827 9964 ft 285 kts 111°
2026-04-24 19:56 25.60332 54.88837 9957 ft 279 kts 115°
2026-04-24 19:56 25.59538 54.90805 9959 ft 281 kts 115°
2026-04-24 19:56 25.58753 54.92788 9958 ft 279 kts 115°
2026-04-24 19:56 25.57986 54.94747 9958 ft 280 kts 114°
2026-04-24 19:57 25.57208 54.96741 9962 ft 287 kts 114°
2026-04-24 19:57 25.56368 54.98893 9874 ft 312 kts 114°
2026-04-24 19:57 25.55514 55.01083 9584 ft 310 kts 114°
2026-04-24 19:57 25.54635 55.03281 9285 ft 305 kts 117°
2026-04-24 19:58 25.53633 55.05318 9009 ft 302 kts 121°
2026-04-24 19:58 25.52588 55.07325 8729 ft 299 kts 121°
2026-04-24 19:58 25.51555 55.09303 8442 ft 298 kts 121°
2026-04-24 19:58 25.50520 55.11293 8144 ft 296 kts 121°
2026-04-24 19:59 25.49493 55.13271 7976 ft 293 kts 121°
2026-04-24 19:59 25.48472 55.15235 7940 ft 294 kts 121°
2026-04-24 19:59 25.47452 55.17197 7951 ft 295 kts 121°
2026-04-24 19:59 25.46422 55.19172 7963 ft 296 kts 123°
2026-04-24 20:00 25.45187 55.20962 7950 ft 294 kts 132°
2026-04-24 20:00 25.43818 55.22655 7965 ft 294 kts 133°
2026-04-24 20:00 25.42447 55.24326 7963 ft 294 kts 133°
2026-04-24 20:00 25.41072 55.26007 7972 ft 294 kts 133°
2026-04-24 20:01 25.39708 55.27680 7971 ft 293 kts 133°
2026-04-24 20:01 25.38339 55.29360 7973 ft 293 kts 133°
2026-04-24 20:01 25.36983 55.31024 7973 ft 293 kts 133°
2026-04-24 20:01 25.35519 55.32603 7967 ft 292 kts 146°
2026-04-24 20:02 25.34366 55.33409 7978 ft 291 kts 152°
2026-04-24 20:02 25.31989 55.34821 7734 ft 292 kts 154°
2026-04-24 20:02 25.30194 55.35862 7452 ft 290 kts 153°
2026-04-24 20:02 25.28413 55.36900 7142 ft 288 kts 153°
2026-04-24 20:03 25.26622 55.37947 6789 ft 288 kts 153°
2026-04-24 20:03 25.24845 55.38988 6433 ft 288 kts 153°
2026-04-24 20:03 25.23080 55.40022 6081 ft 288 kts 153°
2026-04-24 20:03 25.21286 55.41071 5714 ft 288 kts 153°
2026-04-24 20:04 25.19542 55.42092 5345 ft 283 kts 153°
2026-04-24 20:04 25.17819 55.43100 4994 ft 277 kts 152°
2026-04-24 20:04 25.16115 55.44097 4648 ft 273 kts 152°
2026-04-24 20:04 25.14431 55.45081 4318 ft 274 kts 152°
2026-04-24 20:05 25.12742 55.46068 3966 ft 276 kts 152°
2026-04-24 20:05 25.11191 55.47308 3591 ft 276 kts 130°
2026-04-24 20:05 25.10056 55.49021 3236 ft 276 kts 121°
2026-04-24 20:05 25.09046 55.50807 2883 ft 278 kts 120°
2026-04-24 20:06 25.08036 55.52624 2470 ft 275 kts 120°
2026-04-24 20:06 25.07109 55.54431 2112 ft 264 kts 107°
2026-04-24 20:06 25.06928 55.56348 2005 ft 243 kts 77°
2026-04-24 20:06 25.07604 55.57944 1969 ft 224 kts 45°
2026-04-24 20:07 25.08405 55.58618 1958 ft 211 kts 22°
2026-04-24 20:07 25.10263 55.58683 1968 ft 201 kts 337°
2026-04-24 20:07 25.11524 55.57995 1993 ft 204 kts 332°
2026-04-24 20:07 25.12772 55.57245 1996 ft 204 kts 332°
2026-04-24 20:08 25.13987 55.56483 1984 ft 194 kts 326°
2026-04-24 20:08 25.14946 55.55502 1978 ft 181 kts 310°
2026-04-24 20:08 25.15649 55.54396 1981 ft 174 kts 304°
2026-04-24 20:08 25.16281 55.53270 1985 ft 172 kts 303°
2026-04-24 20:09 25.16917 55.52131 1988 ft 175 kts 303°
2026-04-24 20:09 25.17556 55.50983 1993 ft 173 kts 303°
2026-04-24 20:09 25.18197 55.49840 1986 ft 174 kts 303°
2026-04-24 20:09 25.18826 55.48711 1986 ft 171 kts 303°
2026-04-24 20:10 25.19459 55.47576 1944 ft 170 kts 303°
2026-04-24 20:10 25.20062 55.46504 1736 ft 156 kts 303°
2026-04-24 20:10 25.20604 55.45531 1557 ft 147 kts 304°
2026-04-24 20:10 25.21148 55.44570 1337 ft 144 kts 304°
2026-04-24 20:11 25.21671 55.43632 1150 ft 144 kts 302°
2026-04-24 20:11 25.22195 55.42691 963 ft 144 kts 303°
2026-04-24 20:11 25.22738 55.41735 822 ft 148 kts 302°
2026-04-24 20:11 25.23281 55.40761 650 ft 149 kts 303°
2026-04-24 20:12 25.23830 55.39791 427 ft 149 kts 303°
2026-04-24 20:12 25.24373 55.38827 224 ft 145 kts 302°
2026-04-24 20:12 25.24892 55.37880 61 ft 139 kts 302°
2026-04-24 20:12 25.25324 55.37097 52 ft 99 kts 301°
2026-04-24 20:13 25.25602 55.36596 47 ft 52 kts 302°
2026-04-24 20:13 25.25748 55.36332 45 ft 36 kts 302°
2026-04-24 20:13 25.25873 55.36105 42 ft 32 kts 299°
2026-04-24 20:13 25.25945 55.35883 42 ft 29 kts 276°
2026-04-24 20:14 25.25951 55.35716 40 ft 15 kts 271°
2026-04-24 20:14 25.25957 55.35633 39 ft 8 kts 278°
2026-04-24 20:14 25.25972 55.35569 39 ft 8 kts 291°
2026-04-24 20:14 25.26011 55.35492 39 ft 14 kts 301°
2026-04-24 20:15 25.26077 55.35372 37 ft 21 kts 301°
2026-04-24 20:15 25.26165 55.35214 36 ft 25 kts 300°
2026-04-24 20:15 25.26256 55.35049 36 ft 24 kts 301°
2026-04-24 20:15 25.26330 55.34916 34 ft 9 kts 301°
2026-04-24 20:16 25.26322 55.34848 33 ft 10 kts 226°
2026-04-24 20:16 25.26252 55.34801 33 ft 12 kts 210°
2026-04-24 20:16 25.26176 55.34745 33 ft 14 kts 221°
2026-04-24 20:16 25.26101 55.34660 33 ft 17 kts 226°
2026-04-24 20:17 25.26054 55.34596 33 ft 8 kts 249°
2026-04-24 20:17 25.26097 55.34509 33 ft 4 kts 358°
2026-04-24 20:17 25.26130 55.34529 32 ft 6 kts 32°
2026-04-24 20:18 25.26156 55.34547 32 ft 4 kts 32°
2026-04-24 20:18 25.26170 55.34556 32 ft 0 kts 31°